�������l�o���
Date,Time,MP-1(��Sv/h),MP-2(��Sv/h),MP-3(��Sv/h),MP-4(��Sv/h),MP-5(��Sv/h),MP-6(��Sv/h),MP-7(��Sv/h),����,����(m/s),���J
2022/06/15,00:00,0.148,0.137,0.216,0.210,0.215,0.119,0.076,�k��,3.9,��
2022/06/15,00:10,0.149,0.137,0.216,0.211,0.213,0.118,0.076,�k��,3.3,��
2022/06/15,00:20,0.147,0.136,0.215,0.210,0.214,0.118,0.075,�k�k��,2.8,��
2022/06/15,00:30,0.149,0.137,0.217,0.210,0.214,0.118,0.076,�k��,4.2,��
2022/06/15,00:40,0.147,0.138,0.215,0.211,0.213,0.118,0.075,�k��,3.6,��
2022/06/15,00:50,0.148,0.136,0.216,0.211,0.213,0.117,0.076,�k�k��,3.7,��
2022/06/15,01:00,0.147,0.137,0.216,0.209,0.212,0.117,0.076,�k�k��,3.4,��
2022/06/15,01:10,0.148,0.138,0.216,0.211,0.214,0.118,0.076,�k�k��,3.2,��
2022/06/15,01:20,0.148,0.137,0.216,0.209,0.214,0.117,0.075,�k�k��,3.3,�L
2022/06/15,01:30,0.148,0.137,0.215,0.210,0.215,0.118,0.075,�k��,3.4,�L
2022/06/15,01:40,0.149,0.137,0.217,0.211,0.212,0.118,0.076,�k�k��,3.5,�L
2022/06/15,01:50,0.148,0.137,0.216,0.210,0.216,0.118,0.075,�k�k��,3.2,�L
2022/06/15,02:00,0.149,0.137,0.217,0.212,0.213,0.118,0.076,�k,3.1,�L
2022/06/15,02:10,0.148,0.138,0.217,0.210,0.216,0.118,0.076,�k,3.5,�L
2022/06/15,02:20,0.149,0.138,0.215,0.211,0.213,0.119,0.076,�k�k��,3.9,�L
2022/06/15,02:30,0.148,0.137,0.217,0.211,0.214,0.119,0.076,�k�k��,3.8,�L
2022/06/15,02:40,0.148,0.137,0.216,0.210,0.213,0.118,0.076,�k�k��,4.6,�L
2022/06/15,02:50,0.148,0.137,0.217,0.212,0.214,0.119,0.076,�k�k��,4.0,�L
2022/06/15,03:00,0.150,0.136,0.217,0.211,0.214,0.118,0.076,�k�k��,5.4,�L
2022/06/15,03:10,0.149,0.138,0.216,0.212,0.215,0.118,0.077,�k�k��,4.0,�L
2022/06/15,03:20,0.148,0.137,0.218,0.211,0.215,0.118,0.076,�k�k��,5.0,�L
2022/06/15,03:30,0.149,0.138,0.215,0.212,0.213,0.118,0.076,�k�k��,4.9,�L
2022/06/15,03:40,0.148,0.137,0.216,0.211,0.216,0.118,0.076,�k�k��,4.9,�L
2022/06/15,03:50,0.149,0.137,0.215,0.211,0.212,0.118,0.076,�k�k��,4.5,�L
2022/06/15,04:00,0.148,0.138,0.216,0.212,0.216,0.119,0.076,�k�k��,3.7,�L
2022/06/15,04:10,0.149,0.137,0.215,0.211,0.212,0.117,0.076,�k��,3.7,�L
2022/06/15,04:20,0.147,0.137,0.217,0.212,0.215,0.117,0.076,�k��,3.8,�L
2022/06/15,04:30,0.149,0.137,0.217,0.210,0.213,0.118,0.075,�k�k��,2.7,�L
2022/06/15,04:40,0.149,0.137,0.217,0.211,0.213,0.118,0.076,�k�k��,2.4,�L
2022/06/15,04:50,0.148,0.136,0.217,0.210,0.213,0.118,0.076,�k�k��,2.7,�L
2022/06/15,05:00,0.148,0.137,0.216,0.209,0.215,0.118,0.076,�k�k��,3.7,�L
2022/06/15,05:10,0.149,0.136,0.216,0.212,0.213,0.117,0.075,�k��,1.8,��
2022/06/15,05:20,0.148,0.137,0.215,0.210,0.214,0.119,0.075,�k��,2.0,��
2022/06/15,05:30,0.148,0.137,0.216,0.211,0.213,0.118,0.076,�k��,2.4,��
2022/06/15,05:40,0.149,0.137,0.215,0.210,0.213,0.119,0.075,�k��,1.7,��
2022/06/15,05:50,0.148,0.137,0.217,0.210,0.213,0.118,0.076,�k�k��,1.5,��
2022/06/15,06:00,0.149,0.137,0.216,0.210,0.213,0.118,0.075,-,CALM,��
2022/06/15,06:10,0.148,0.136,0.216,0.211,0.214,0.117,0.075,-,CALM,��
2022/06/15,06:20,0.149,0.137,0.216,0.212,0.213,0.118,0.076,-,CALM,�L
2022/06/15,06:30,0.148,0.137,0.216,0.211,0.213,0.117,0.075,-,CALM,��
2022/06/15,06:40,0.149,0.137,0.215,0.210,0.213,0.118,0.075,-,CALM,��
2022/06/15,06:50,0.149,0.137,0.215,0.211,0.213,0.118,0.075,-,CALM,��
2022/06/15,07:00,0.150,0.138,0.216,0.210,0.215,0.118,0.075,-,CALM,��
2022/06/15,07:10,0.148,0.137,0.216,0.212,0.213,0.117,0.076,-,CALM,��
2022/06/15,07:20,0.148,0.137,0.217,0.210,0.214,0.119,0.076,-,CALM,��
2022/06/15,07:30,0.148,0.137,0.216,0.211,0.214,0.118,0.076,-,CALM,�L
2022/06/15,07:40,0.148,0.137,0.217,0.209,0.215,0.117,0.076,��쓌,0.7,�L
2022/06/15,07:50,0.149,0.137,0.216,0.210,0.212,0.118,0.076,��쓌,0.9,��
2022/06/15,08:00,0.148,0.136,0.215,0.210,0.213,0.117,0.075,��쐼,1.1,��
2022/06/15,08:10,0.149,0.136,0.216,0.210,0.214,0.118,0.075,��쐼,1.3,��
2022/06/15,08:20,0.147,0.135,0.214,0.210,0.211,0.117,0.075,��,1.1,��
2022/06/15,08:30,0.149,0.137,0.217,0.210,0.214,0.118,0.075,��,1.2,��
2022/06/15,08:40,0.147,0.138,0.214,0.211,0.213,0.118,0.075,��,1.5,��
2022/06/15,08:50,0.149,0.136,0.216,0.210,0.212,0.118,0.075,��쐼,1.7,��
2022/06/15,09:00,0.148,0.136,0.215,0.209,0.214,0.118,0.076,��,2.2,��
2022/06/15,09:10,0.148,0.138,0.215,0.213,0.213,0.118,0.075,��,2.3,��
2022/06/15,09:20,0.148,0.137,0.217,0.210,0.212,0.118,0.076,��,2.8,��
2022/06/15,09:30,0.148,0.137,0.215,0.210,0.214,0.118,0.075,��쓌,2.8,��
2022/06/15,09:40,0.148,0.136,0.214,0.211,0.212,0.117,0.076,��쓌,3.2,��
2022/06/15,09:50,0.148,0.135,0.217,0.209,0.212,0.117,0.076,��쓌,3.7,��
2022/06/15,10:00,0.148,0.137,0.216,0.209,0.214,0.118,0.076,��,4.3,��
2022/06/15,10:10,0.147,0.136,0.215,0.210,0.212,0.117,0.075,��쓌,3.6,��
2022/06/15,10:20,0.147,0.137,0.217,0.209,0.211,0.118,0.076,��,3.8,��
2022/06/15,10:30,0.149,0.137,0.215,0.210,0.214,0.118,0.074,��쓌,4.0,��
2022/06/15,10:40,0.147,0.136,0.214,0.211,0.213,0.118,0.075,��,4.3,�L
2022/06/15,10:50,0.148,0.137,0.216,0.210,0.212,0.118,0.075,��,4.6,�L
2022/06/15,11:00,0.149,0.136,0.216,0.210,0.215,0.118,0.075,��쓌,5.4,�L
2022/06/15,11:10,0.147,0.136,0.215,0.213,0.214,0.118,0.076,��쓌,5.3,�L
2022/06/15,11:20,0.147,0.137,0.216,0.210,0.211,0.118,0.075,��쓌,4.8,�L
2022/06/15,11:30,0.148,0.137,0.216,0.210,0.215,0.118,0.076,��쓌,5.0,�L
2022/06/15,11:40,0.148,0.137,0.215,0.212,0.214,0.118,0.076,��쓌,5.1,�L
2022/06/15,11:50,0.148,0.137,0.218,0.211,0.212,0.117,0.076,��쓌,5.2,�L
2022/06/15,12:00,0.148,0.137,0.216,0.211,0.216,0.118,0.076,��쓌,5.3,�L
2022/06/15,12:10,0.149,0.138,0.215,0.212,0.215,0.119,0.076,��쓌,5.3,�L
2022/06/15,12:20,0.148,0.137,0.218,0.211,0.212,0.117,0.076,��쓌,5.9,�L
2022/06/15,12:30,0.148,0.138,0.216,0.213,0.215,0.118,0.077,��,6.0,�L
2022/06/15,12:40,0.150,0.137,0.217,0.213,0.215,0.118,0.077,��쓌,5.9,�L
2022/06/15,12:50,0.147,0.138,0.218,0.211,0.213,0.118,0.077,��,6.4,�L
2022/06/15,13:00,0.149,0.139,0.216,0.212,0.215,0.119,0.076,��쓌,5.8,�L
2022/06/15,13:10,0.149,0.137,0.217,0.212,0.215,0.117,0.076,��쓌,5.7,�L
2022/06/15,13:20,0.148,0.137,0.216,0.210,0.213,0.118,0.076,��,4.0,�L
2022/06/15,13:30,0.149,0.137,0.216,0.212,0.215,0.119,0.076,��,4.4,��
2022/06/15,13:40,0.147,0.138,0.218,0.211,0.213,0.118,0.075,��,3.9,�L
2022/06/15,13:50,0.149,0.137,0.216,0.213,0.214,0.118,0.075,��,4.1,�L
2022/06/15,14:00,0.148,0.136,0.216,0.212,0.215,0.117,0.076,��쓌,4.7,�L
2022/06/15,14:10,0.148,0.138,0.217,0.209,0.212,0.117,0.075,��쓌,5.0,�L
2022/06/15,14:20,0.149,0.137,0.215,0.213,0.215,0.119,0.076,��쓌,3.9,�L
2022/06/15,14:30,0.148,0.138,0.217,0.211,0.215,0.119,0.077,��쐼,4.6,�L
2022/06/15,14:40,0.149,0.138,0.216,0.211,0.213,0.119,0.077,��,4.2,�L
2022/06/15,14:50,0.149,0.138,0.217,0.212,0.216,0.119,0.076,��,4.0,�L
2022/06/15,15:00,0.148,0.138,0.217,0.212,0.213,0.119,0.076,��,3.5,�L
2022/06/15,15:10,0.150,0.138,0.216,0.213,0.215,0.119,0.076,��,2.6,�L
2022/06/15,15:20,0.149,0.139,0.218,0.210,0.214,0.118,0.076,��,3.4,�L
2022/06/15,15:30,0.148,0.137,0.216,0.213,0.212,0.117,0.076,��쐼,4.9,��
2022/06/15,15:40,0.149,0.137,0.216,0.210,0.215,0.119,0.076,��,4.3,��
2022/06/15,15:50,0.148,0.137,0.217,0.210,0.214,0.118,0.075,��쓌,5.1,��
2022/06/15,16:00,0.149,0.136,0.215,0.212,0.213,0.118,0.075,��쓌,5.0,��
2022/06/15,16:10,0.148,0.138,0.217,0.211,0.215,0.118,0.075,��쓌,6.2,��
2022/06/15,16:20,0.147,0.137,0.215,0.211,0.213,0.119,0.075,��쓌,5.5,��
2022/06/15,16:30,0.148,0.137,0.216,0.211,0.214,0.118,0.076,��쓌,4.9,��
2022/06/15,16:40,0.146,0.137,0.216,0.211,0.215,0.118,0.075,��쓌,5.3,��
2022/06/15,16:50,0.147,0.137,0.216,0.212,0.213,0.118,0.075,��쓌,5.2,��
2022/06/15,17:00,0.148,0.137,0.217,0.210,0.215,0.118,0.074,��,4.4,��
2022/06/15,17:10,0.147,0.137,0.215,0.212,0.212,0.118,0.074,��,4.1,��
2022/06/15,17:20,0.148,0.138,0.218,0.210,0.214,0.118,0.075,��,3.3,��
2022/06/15,17:30,0.147,0.137,0.216,0.211,0.214,0.118,0.076,��쓌,3.9,��
2022/06/15,17:40,0.148,0.137,0.216,0.211,0.212,0.119,0.075,��쓌,4.5,��
2022/06/15,17:50,0.148,0.137,0.216,0.210,0.214,0.118,0.075,��쓌,5.1,��
2022/06/15,18:00,0.148,0.136,0.217,0.212,0.213,0.118,0.075,��쓌,5.5,��
2022/06/15,18:10,0.148,0.137,0.216,0.211,0.214,0.117,0.075,��쓌,5.6,��
2022/06/15,18:20,0.149,0.137,0.216,0.212,0.213,0.117,0.075,��,5.5,��
2022/06/15,18:30,0.149,0.137,0.216,0.211,0.213,0.118,0.076,��쓌,5.0,��
2022/06/15,18:40,0.147,0.136,0.217,0.212,0.214,0.117,0.075,��,4.3,��
2022/06/15,18:50,0.150,0.136,0.216,0.210,0.213,0.118,0.075,��쓌,3.7,��
2022/06/15,19:00,0.147,0.137,0.216,0.212,0.215,0.118,0.075,��쓌,4.0,��
2022/06/15,19:10,0.149,0.136,0.217,0.210,0.214,0.118,0.076,��쓌,6.0,��
2022/06/15,19:20,0.147,0.136,0.215,0.212,0.214,0.118,0.076,��쓌,5.0,��
2022/06/15,19:30,0.149,0.137,0.216,0.211,0.213,0.118,0.075,��,4.6,��
2022/06/15,19:40,0.148,0.136,0.216,0.212,0.214,0.118,0.076,��쓌,4.4,��
2022/06/15,19:50,0.149,0.137,0.215,0.211,0.212,0.118,0.075,��쓌,4.4,�L
2022/06/15,20:00,0.148,0.137,0.215,0.211,0.216,0.118,0.075,��쓌,4.6,��
2022/06/15,20:10,0.149,0.137,0.216,0.210,0.213,0.118,0.075,��쓌,4.8,��
2022/06/15,20:20,0.147,0.136,0.216,0.211,0.214,0.117,0.075,��쓌,4.7,��
2022/06/15,20:30,0.149,0.137,0.216,0.210,0.214,0.118,0.075,��쓌,3.9,��
2022/06/15,20:40,0.148,0.137,0.216,0.212,0.215,0.117,0.075,��쓌,3.9,��
2022/06/15,20:50,0.149,0.137,0.215,0.211,0.213,0.118,0.075,��,4.6,��
2022/06/15,21:00,0.148,0.137,0.217,0.211,0.215,0.117,0.075,��쓌,4.7,��
2022/06/15,21:10,0.149,0.136,0.215,0.211,0.214,0.118,0.075,��쓌,5.2,��
2022/06/15,21:20,0.148,0.136,0.216,0.211,0.215,0.117,0.075,��쓌,5.2,��
2022/06/15,21:30,0.148,0.137,0.216,0.211,0.214,0.118,0.075,��,4.0,��
2022/06/15,21:40,0.148,0.137,0.217,0.211,0.214,0.117,0.076,��쓌,4.1,��
2022/06/15,21:50,0.150,0.137,0.216,0.212,0.214,0.118,0.075,��쓌,4.7,��
2022/06/15,22:00,0.148,0.137,0.217,0.210,0.214,0.117,0.076,��,4.4,��
2022/06/15,22:10,0.148,0.137,0.216,0.212,0.213,0.118,0.076,��,4.6,��
2022/06/15,22:20,0.148,0.136,0.216,0.211,0.214,0.118,0.075,��쓌,4.5,��
2022/06/15,22:30,0.148,0.138,0.216,0.211,0.214,0.119,0.075,��쓌,3.5,��
2022/06/15,22:40,0.148,0.136,0.217,0.210,0.213,0.117,0.075,��쓌,4.5,��
2022/06/15,22:50,0.149,0.137,0.217,0.211,0.213,0.119,0.076,��쓌,4.4,��
2022/06/15,23:00,0.147,0.137,0.216,0.210,0.215,0.118,0.075,��쓌,4.4,��
2022/06/15,23:10,0.149,0.136,0.216,0.213,0.213,0.119,0.075,��쓌,4.0,��
2022/06/15,23:20,0.148,0.137,0.217,0.211,0.215,0.118,0.075,��,4.1,��
2022/06/15,23:30,0.149,0.136,0.216,0.212,0.214,0.118,0.076,��쓌,3.3,��
2022/06/15,23:40,0.148,0.138,0.217,0.212,0.214,0.119,0.076,��쓌,3.8,��
2022/06/15,23:50,0.149,0.137,0.216,0.212,0.214,0.118,0.076,��,4.2,��
